MOLNIYA 1-S

Last updated on Dec. 5, 2020, 6:14 a.m. UTC

1 07392U 74060A   20339.90291810  .00000161  00000-0  00000-0 0  9993
2 07392   6.4867 291.1510 0008968 194.4808 314.8310  1.00278386113918
UTC
Height (km)
Latitude
Longitude
Inclination
Orbital Period
UTC large
Height (km)
Speed (km/s)
/
Latitude / Longitude
Inclination (degrees)
Orbital Period (minutes)
Azimuth
Elevation
Range (km)
Doppler Factor
iOS Compass Heading
iOS Angle

Next 30 passes for location: Hong Kong

Rise time Rise Azimuth (degrees) Set time Set Azimuth (degrees) Duration Max altitude (degrees)

No matching passes for this satellites